Garrison, ND

2:45 PM CDT on September 19, 2017 (GMT -0500)
Garrison

Weather History for KN60 - August, 2013

Change the Weather History Date:

Monday, August 19, 2013

  Actual Average Record
Temperature  
Mean Temperature 77 °F -  
Max Temperature 96 °F - 96 °F (2013)
Min Temperature 57 °F - 39 °F (2004)
Degree Days  
Heating Degree Days 0    
Cooling Degree Days 12    
Month to date cooling degree days 49  
Year to date cooling degree days 210  
Since 1 June cooling degree days 204  
Growing Degree Days 26 (Base 50)    
Moisture  
Dew Point 61 °F    
Average Humidity 62    
Maximum Humidity 97    
Minimum Humidity 26    
Precipitation  
Precipitation 0.00 in - 0.05 in (1998)
Month to date precipitation 2.65  
Year to date precipitation 21.50  
Sea Level Pressure  
Sea Level Pressure 29.82 in    
Wind  
Wind Speed 5 mph (SW)    
Max Wind Speed 14 mph    
Max Gust Speed 24 mph    
T = Trace of Precipitation, MM = Missing Value Source: NWS Daily Summary

Daily Weather History Graph

Daily Weather History Graph

Search for Another Location

Airport or City:

Trip Planner

Search our weather history database for the weather conditions in past years. The results will help you decide how hot, cold, wet, or windy it might be!

Date:

Astronomy

Aug. 19, 2013 Rise Set
Actual Time 6:47 AM CDT 8:50 PM CDT
Civil Twilight 6:13 AM CDT 9:23 PM CDT
Nautical Twilight 5:32 AM CDT 10:04 PM CDT
Astronomical Twilight 4:46 AM CDT 10:50 PM CDT
Moon 7:42 PM CDT 5:06 AM CDT
Length of Visible Light 15h 09m
Length of Day
14h 03m
Waxing Gibbous, 97% of the Moon is Illuminated
Aug 19
Waxing Gibbous
Aug 20
Full
Aug 28
Last Quarter
Sep 5
New
Sep 12
First Quarter

Hourly Weather History & Observations

Time (CDT) Temp. Heat Index Dew Point Humidity Pressure Visibility Wind Dir Wind Speed Gust Speed Precip Events Conditions
12:52 AM 61.0 °F - 59.0 °F 93% 29.89 in - Calm Calm - N/A   Unknown
1:52 AM 61.0 °F - 59.0 °F 93% 29.90 in - Calm Calm - N/A   Unknown
2:52 AM 61.0 °F - 57.9 °F 90% 29.88 in - SW 4.6 mph - N/A   Unknown
3:52 AM 61.0 °F - 57.9 °F 90% 29.87 in - West 3.5 mph - N/A   Unknown
4:52 AM 60.1 °F - 57.0 °F 90% 29.88 in - Calm Calm - N/A   Unknown
5:52 AM 57.0 °F - 55.0 °F 93% 29.87 in - Calm Calm - N/A   Unknown
6:52 AM 57.9 °F - 55.9 °F 93% 29.88 in - Calm Calm - N/A   Unknown
7:52 AM 61.0 °F - 59.0 °F 93% 29.88 in - Calm Calm - N/A   Unknown
8:52 AM 66.0 °F - 63.0 °F 90% 29.88 in - Calm Calm - N/A   Unknown
9:52 AM 73.0 °F - 64.9 °F 76% 29.88 in - South 3.5 mph - N/A   Unknown
10:52 AM 77.0 °F - 64.9 °F 66% 29.86 in - Variable 4.6 mph - N/A   Unknown
11:52 AM 81.0 °F 83.0 °F 66.0 °F 60% 29.84 in - South 6.9 mph - N/A   Unknown
12:52 PM 88.0 °F 89.6 °F 64.9 °F 46% 29.82 in - SSE 9.2 mph - N/A   Unknown
1:52 PM 90.0 °F 92.4 °F 66.0 °F 45% 29.80 in - SSE 8.1 mph - N/A   Unknown
2:52 PM 91.9 °F 91.2 °F 59.0 °F 33% 29.78 in - South 9.2 mph - N/A   Unknown
3:52 PM 95.0 °F 93.4 °F 55.9 °F 27% 29.76 in - SW 12.7 mph 23.0 mph N/A   Unknown
4:52 PM 95.0 °F 93.7 °F 57.0 °F 28% 29.74 in - SSW 13.8 mph 21.9 mph N/A   Unknown
5:52 PM 95.0 °F 94.4 °F 59.0 °F 30% 29.73 in - SW 9.2 mph - N/A   Unknown
6:52 PM 90.0 °F 90.6 °F 63.0 °F 40% 29.73 in - NW 11.5 mph 24.2 mph N/A   Unknown
7:52 PM 84.0 °F 86.5 °F 66.9 °F 56% 29.73 in - NW 8.1 mph - N/A   Unknown
8:52 PM 75.9 °F - 63.0 °F 64% 29.74 in - WNW 4.6 mph - N/A   Unknown
9:52 PM 69.1 °F - 62.1 °F 78% 29.75 in - NW 6.9 mph - N/A   Unknown
10:52 PM 66.0 °F - 62.1 °F 87% 29.76 in - Calm Calm - N/A   Unknown
11:52 PM 66.0 °F - 57.0 °F 73% 29.76 in - Variable 3.5 mph - N/A   Unknown